GFSFLT2_sfc_30mbdewp_222.txt.gz
Dewpoint
69 70 71 71 71 70 70 70 70 70 70 70 69 69 68 68 68 68 68 67 66 65 63 62 61 60 60 61 62 62 64 66
67 69 70 70 70 70 70 70 70 70 69 69 69 68 68 68 68 68 68 67 67 65 64 62 61 59 59 60 61 62 65 65
67 68 68 68 69 69 69 69 69 69 69 69 68 68 67 68 67 68 68 67 67 66 64 63 61 59 59 60 61 63 65 65
66 67 67 67 68 68 68 69 69 68 68 68 67 67 67 67 67 67 68 67 67 66 65 63 61 59 58 59 60 63 64 65
66 66 67 66 66 66 66 67 67 67 67 67 66 66 66 66 65 68 68 67 66 66 64 63 61 59 57 58 59 62 64 64
65 66 66 66 66 66 66 66 66 66 66 66 66 64 64 64 65 67 67 67 65 65 63 62 60 59 58 57 59 60 63 64
64 65 66 66 66 65 66 65 65 65 65 66 65 64 64 65 65 66 66 66 65 64 63 61 60 58 58 57 55 59 62 63
64 64 65 66 65 64 65 65 64 64 65 65 65 63 64 65 65 65 65 65 64 64 63 61 60 57 56 54 52 58 62 61
63 64 65 65 65 64 64 64 64 64 64 65 65 65 64 65 65 64 64 64 64 64 62 61 59 57 53 51 51 53 58 60
64 64 65 66 65 65 65 65 64 64 64 65 65 66 65 65 65 64 65 64 63 62 62 59 58 55 51 50 50 52 56 59
64 65 64 65 66 66 66 66 66 66 66 66 66 66 66 65 65 64 64 64 63 59 58 56 53 52 49 48 50 52 54 57
65 65 65 65 65 65 65 66 66 66 67 67 67 67 66 65 64 64 64 64 63 61 56 53 50 49 47 47 49 52 53 56
65 65 65 65 64 64 64 64 65 65 66 66 66 66 66 66 65 65 64 64 63 62 59 55 52 50 48 47 48 52 53 54
65 65 65 64 64 64 63 63 64 64 65 65 66 66 66 66 65 65 64 64 63 62 60 56 53 52 48 48 45 47 50 52
60 59 61 64 64 62 62 61 62 61 62 62 63 64 64 64 64 64 64 64 63 63 62 61 60 56 52 48 47 45 47 49
42 47 54 62 63 61 60 59 57 49 54 61 62 62 62 62 63 63 62 62 62 62 62 61 60 58 57 54 52 48 46 45
39 41 44 48 50 49 47 47 44 46 44 45 44 49 59 62 62 61 61 61 61 60 60 60 59 57 57 55 53 52 51 48
37 37 39 40 41 41 41 41 41 39 41 42 46 48 50 50 55 57 58 58 58 58 58 58 58 57 57 57 55 53 52 51
34 34 36 38 38 38 39 40 39 40 41 44 44 45 46 50 52 52 52 51 51 52 53 54 55 55 55 54 55 54 55 54
32 33 33 33 35 36 38 38 37 38 39 41 41 44 48 50 49 49 48 48 48 47 48 49 51 50 50 50 51 52 53 53

GFSFLT2_sfc_30mbdewp_225.txt.gz
Dewpoint
69 70 70 70 70 70 69 69 69 70 69 69 69 68 68 68 68 68 68 67 66 64 63 62 61 60 60 61 61 62 63 66
68 68 69 69 70 69 69 69 69 69 69 69 69 68 68 68 68 68 68 67 66 64 63 62 61 60 59 60 60 62 64 65
67 68 67 68 68 69 69 69 69 69 69 69 68 68 67 68 67 68 68 67 66 65 64 63 61 60 59 59 60 63 65 65
66 67 67 67 68 68 68 69 69 69 69 68 67 67 67 67 67 67 68 67 67 66 64 63 62 60 58 59 59 61 64 64
66 66 66 67 67 66 67 68 67 67 68 67 67 66 66 66 66 66 67 67 66 66 65 63 62 60 58 57 59 60 63 64
65 66 66 66 66 66 66 66 66 66 67 66 66 65 64 65 64 65 66 67 66 65 64 63 61 60 58 57 58 59 62 63
65 65 65 65 65 65 65 66 66 66 66 66 65 64 63 63 64 64 66 65 65 64 63 63 61 60 59 58 57 58 61 63
65 65 65 65 64 64 64 64 65 64 64 65 65 64 63 63 64 64 65 65 65 64 63 62 61 60 57 57 55 55 59 62
63 64 65 65 65 64 64 64 64 64 64 64 64 63 63 63 64 64 65 65 64 64 63 62 61 60 58 55 53 52 59 61
63 64 64 65 65 64 63 63 64 63 63 63 64 65 64 63 64 64 64 64 64 63 63 62 61 60 58 55 52 51 54 59
63 64 64 64 65 65 64 64 64 64 64 64 64 65 65 64 64 64 64 64 64 63 61 61 59 58 58 55 52 51 51 56
63 64 64 65 65 65 65 65 65 65 65 65 65 65 66 65 65 65 64 64 64 63 60 56 56 56 55 52 50 50 51 54
64 64 64 65 65 64 64 64 65 65 66 66 66 66 66 66 65 65 64 63 63 63 61 58 54 51 49 49 48 50 51 52
64 64 64 65 65 64 64 64 65 65 65 66 66 66 66 65 65 65 65 64 63 62 61 59 56 54 51 50 48 49 49 51
64 64 64 64 64 63 62 62 62 61 63 63 64 65 65 65 64 64 64 64 63 62 62 61 60 58 54 52 49 47 47 49
62 63 64 64 63 62 61 59 57 53 58 61 60 62 62 62 62 62 61 61 61 61 61 61 60 59 58 57 55 53 49 48
56 59 62 62 61 60 58 52 47 47 50 49 47 52 58 60 60 60 59 59 59 59 59 59 58 57 56 56 55 54 53 50
50 54 55 56 53 53 50 44 43 41 41 44 47 47 49 53 55 55 55 54 54 54 54 55 56 55 54 55 54 52 52 52
45 48 48 46 43 44 42 40 38 39 42 44 44 45 47 50 51 50 49 49 48 48 48 50 50 51 52 51 52 51 52 51
39 39 39 40 40 39 39 38 39 39 42 41 42 45 48 49 48 47 47 46 45 45 45 46 44 44 44 45 45 46 47 48

GFSFLT2_sfc_30mbdewp_231.txt.gz
Dewpoint
70 69 70 70 70 69 68 68 69 69 69 69 68 67 68 68 68 69 67 65 64 63 62 61 61 61 60 60 60 61 62 64
69 69 69 69 69 69 68 68 68 68 68 68 68 67 68 68 67 68 67 65 64 63 62 61 60 60 60 59 60 61 61 64
67 68 68 69 69 69 68 68 68 68 68 68 67 66 66 66 66 67 67 66 64 63 63 62 61 60 59 59 59 60 62 64
66 67 67 67 67 69 69 68 68 68 67 68 67 66 66 65 66 67 67 66 66 65 64 63 62 61 59 58 57 60 64 65
65 66 66 67 66 67 68 68 68 68 68 68 67 67 67 65 65 65 66 66 65 66 65 64 63 62 60 59 59 59 62 64
64 65 66 66 66 66 67 67 67 67 68 67 68 66 66 65 64 64 65 64 65 65 65 65 64 63 62 60 58 59 59 62
64 65 65 65 65 65 65 66 66 66 66 66 66 66 66 65 64 64 63 64 65 65 65 64 64 63 62 60 60 58 59 59
64 64 65 65 65 65 65 65 65 65 66 66 68 67 66 65 64 63 63 63 65 66 65 64 64 63 62 61 58 58 57 57
63 64 66 66 64 64 64 64 64 64 66 67 67 66 65 64 64 62 62 64 65 65 65 65 64 64 63 63 61 58 56 56
64 64 64 64 65 64 64 64 65 64 65 66 66 66 64 64 63 62 62 64 65 65 65 64 64 64 64 63 62 61 57 56
64 65 64 65 64 64 64 64 64 64 64 64 64 64 64 63 62 62 63 63 65 64 64 64 63 63 63 62 62 60 60 57
65 65 65 65 65 64 64 64 64 63 62 63 63 63 63 63 63 63 64 64 64 65 64 64 63 63 60 59 59 58 57 57
64 64 65 65 64 63 63 62 63 63 63 63 63 63 63 64 64 64 65 64 65 65 65 64 62 59 58 58 55 56 56 54
63 64 64 64 64 63 61 62 62 61 63 64 64 65 65 65 65 65 65 65 64 64 63 62 60 59 58 52 54 54 55 54
63 63 64 64 63 63 64 63 64 63 65 65 66 66 67 66 66 65 65 65 64 63 63 61 61 59 58 58 54 52 53 54
62 63 64 63 63 62 62 60 61 63 65 65 65 66 65 65 64 64 64 62 62 61 62 61 60 58 59 58 58 56 53 50
63 63 64 64 64 63 63 62 62 63 62 61 61 61 61 61 61 61 60 60 60 60 60 59 58 57 55 54 54 53 52 51
63 63 63 64 64 64 63 62 60 60 58 58 58 57 58 59 59 59 58 57 57 57 56 56 56 55 54 53 51 50 49 48
63 63 63 64 64 64 63 60 60 59 57 54 56 56 56 56 55 54 52 52 51 52 50 49 50 50 50 50 49 49 48 47
61 62 62 62 62 62 59 57 57 54 52 52 52 53 53 52 51 49 48 48 48 47 47 46 46 46 45 44 44 44 43 42

GFSFLT2_sfc_30mbdewp_234.txt.gz
Dewpoint
66 67 69 70 70 69 69 69 69 69 69 69 69 68 68 68 68 68 67 65 63 62 62 61 61 60 60 59 60 60 57 57
67 66 67 68 68 68 68 68 68 69 69 68 67 67 68 68 68 67 66 64 63 62 62 61 61 60 59 59 59 58 56 55
66 66 66 67 67 67 68 68 68 68 68 67 66 63 64 66 63 66 66 64 63 63 62 61 61 60 59 58 58 53 56 56
65 66 66 66 65 67 66 66 66 65 65 66 63 62 62 60 63 67 67 65 65 64 63 62 61 58 57 58 54 54 56 57
64 65 66 66 64 66 65 65 65 65 65 66 63 64 63 61 61 63 63 66 63 64 64 61 60 59 57 57 55 55 53 56
63 64 66 66 64 66 65 64 65 65 65 66 64 64 63 60 59 59 61 60 61 62 61 63 63 62 61 59 57 54 51 54
62 63 65 66 65 65 65 64 67 67 66 68 65 62 62 61 60 59 58 60 61 62 63 62 62 62 62 60 56 55 56 55
63 63 64 65 64 64 65 66 66 67 67 67 67 63 63 61 61 59 58 59 60 63 62 62 62 63 63 62 59 55 55 56
63 64 65 65 64 64 64 65 65 66 66 67 67 65 64 61 59 58 57 59 63 64 65 64 63 63 63 63 62 60 57 57
62 63 65 65 64 64 63 63 65 65 66 66 67 65 64 62 59 59 57 60 62 62 63 63 62 62 63 62 63 61 61 59
61 62 63 65 64 63 63 62 63 62 62 62 64 65 64 61 59 58 60 61 63 64 64 63 61 61 60 60 61 62 61 60
63 62 62 64 63 63 62 62 61 60 60 60 63 63 63 62 58 60 62 61 63 63 62 63 62 62 60 58 59 60 60 60
63 64 64 64 63 63 62 61 61 60 60 60 61 60 61 61 60 62 63 62 61 64 64 63 63 63 61 59 58 58 59 58
62 64 65 65 64 63 62 61 60 60 60 60 61 62 62 62 62 63 64 63 64 66 65 64 63 62 61 58 56 54 54 55
60 63 64 65 64 63 63 61 60 59 59 59 61 63 64 64 65 65 66 66 65 66 65 64 63 62 60 60 56 51 53 49
58 60 63 64 64 63 62 59 58 58 58 60 64 65 66 66 66 66 66 66 65 64 64 63 62 60 60 59 58 56 49 46
56 58 62 63 65 63 62 59 59 59 62 65 66 66 66 66 65 63 62 62 61 61 61 60 60 58 56 54 53 52 52 50
57 57 60 63 64 64 62 62 60 63 64 63 61 62 62 63 63 63 62 61 61 60 59 57 54 53 52 51 50 48 43 43
58 58 59 62 64 64 63 63 63 63 63 62 60 60 61 62 61 61 59 58 57 56 55 54 53 51 51 49 48 46 46 44
58 59 60 62 64 64 65 64 64 63 63 63 62 61 60 59 58 56 55 54 52 50 49 48 49 48 47 46 44 44 43 42

GFSFLT2_sfc_30mbdewp_237.txt.gz
Dewpoint
64 66 68 70 70 70 69 69 69 69 69 70 70 69 69 69 68 68 67 65 64 62 61 61 61 60 60 59 59 58 56 54
63 63 64 67 69 69 68 68 68 69 69 68 68 68 68 68 68 67 66 64 63 62 61 61 61 60 59 58 58 58 55 52
63 62 63 64 64 67 68 68 68 68 68 68 66 62 64 66 63 66 65 64 63 62 62 61 60 60 59 58 58 54 53 53
63 63 64 65 63 65 65 65 65 65 65 66 62 61 61 59 63 66 65 64 64 63 62 62 61 58 58 57 55 52 52 54
62 64 65 65 63 65 63 63 63 64 64 65 62 61 61 58 63 62 63 64 62 63 63 61 59 58 55 55 53 53 50 53
61 63 66 66 63 65 63 63 64 64 64 66 64 62 61 59 58 57 58 60 60 62 62 63 61 61 60 58 57 54 49 51
61 62 65 66 64 63 63 63 63 63 64 66 63 61 61 60 58 57 58 58 59 59 62 60 61 61 61 60 56 54 53 52
61 61 64 64 64 64 64 63 62 65 62 64 66 62 62 60 58 58 57 57 58 59 59 61 61 61 61 61 59 56 54 55
60 61 63 65 64 63 63 62 65 67 66 68 67 64 62 62 59 59 57 57 58 60 61 60 62 62 61 63 62 60 57 58
61 61 63 65 64 62 62 63 64 66 65 67 68 65 62 63 59 58 57 57 59 60 61 62 63 62 62 62 63 60 62 59
61 62 62 64 64 62 63 62 63 62 64 64 66 65 62 62 58 58 58 57 58 60 62 63 63 62 60 63 63 63 60 59
61 63 63 65 64 64 62 61 62 61 61 60 64 65 63 62 58 58 59 58 61 63 61 62 60 59 58 58 59 60 61 61
61 61 63 65 63 62 61 60 60 60 59 59 61 63 63 64 59 59 61 61 63 63 62 61 62 63 61 59 60 59 60 60
59 61 62 63 63 61 59 59 59 59 58 60 61 64 63 62 61 60 63 61 63 63 63 62 62 63 60 59 54 54 58 57
58 61 62 63 62 61 61 61 61 59 59 59 60 62 62 62 62 63 65 65 64 64 65 64 62 63 63 60 56 51 50 50
56 60 61 64 64 61 62 60 59 59 59 59 60 61 62 63 63 65 65 65 65 65 66 65 64 61 61 60 59 57 51 43
52 57 60 63 65 64 63 61 60 58 59 59 60 62 64 64 66 66 67 67 65 64 64 63 62 60 59 57 55 52 52 48
53 56 57 62 66 66 64 63 60 59 59 59 63 65 67 67 67 66 64 63 62 62 62 62 60 57 52 51 49 46 42 42
53 56 54 60 65 66 65 64 63 61 61 65 64 63 63 64 64 63 63 62 61 60 58 56 55 53 52 49 46 43 45 41
53 53 55 58 64 66 66 65 63 61 64 63 62 63 62 63 62 62 61 59 58 56 55 52 51 49 47 44 43 43 42 41

GFSFLT2_sfc_30mbdewp_240.txt.gz
Dewpoint
69 70 71 71 71 70 70 70 70 70 70 70 70 69 69 68 68 67 66 65 63 62 61 61 60 59 59 58 58 57 57 57
67 68 70 71 70 70 69 69 69 69 69 69 69 68 68 68 68 67 66 64 63 62 61 61 60 59 58 58 58 58 56 56
65 66 69 70 70 69 69 68 68 68 68 68 67 66 68 68 66 66 65 63 63 62 61 60 60 59 58 58 58 57 56 59
63 64 66 68 67 69 68 68 68 67 67 67 65 63 64 64 65 65 64 63 63 62 62 61 61 60 59 59 58 56 53 61
63 64 65 65 62 67 66 66 66 66 66 66 64 64 63 62 65 64 64 64 63 62 62 62 60 60 60 59 58 53 52 59
62 65 66 66 65 65 64 65 65 65 66 66 65 65 63 62 65 63 63 62 62 62 63 62 62 62 61 60 58 57 55 59
63 64 66 67 66 65 65 65 65 65 66 67 66 65 64 63 62 60 60 62 62 63 63 64 62 63 61 60 59 57 55 54
63 64 67 67 66 66 64 65 65 66 66 67 66 66 65 63 62 60 60 61 61 62 63 62 62 63 62 62 60 58 54 55
63 64 67 67 66 67 65 65 65 65 66 68 67 67 66 63 62 61 61 60 61 61 63 63 62 62 63 63 63 61 59 58
63 63 66 67 66 66 65 65 66 67 67 68 68 67 66 64 63 62 61 61 60 61 61 61 63 63 63 63 63 63 61 61
62 62 64 66 66 65 65 64 67 67 67 68 68 68 66 65 63 62 61 61 60 61 61 62 62 62 63 63 64 63 63 61
62 63 64 66 66 65 65 66 65 66 66 66 67 67 67 66 63 62 61 60 59 62 61 64 62 62 62 61 62 64 63 61
62 63 64 66 65 64 64 62 64 63 65 65 67 67 66 65 63 62 61 60 60 64 63 62 62 63 60 59 61 61 60 62
63 63 64 65 65 64 64 63 63 63 63 63 64 66 66 65 64 62 62 61 63 64 63 62 62 62 60 59 57 57 60 61
62 64 64 65 65 65 63 63 62 62 62 62 63 65 65 64 64 62 62 63 64 64 63 61 60 63 63 61 57 54 54 58
61 63 64 65 65 64 62 60 59 60 60 61 62 64 64 65 63 63 65 65 65 64 64 63 62 62 62 61 60 58 54 47
58 62 63 64 65 63 62 61 60 61 60 61 61 63 64 63 63 63 66 66 65 66 66 65 64 62 60 60 58 56 54 51
50 58 62 64 64 64 62 62 62 61 60 61 61 62 62 64 64 65 67 66 65 65 64 63 62 61 60 58 53 51 50 49
48 51 59 63 65 64 64 63 63 62 61 61 61 61 63 64 66 66 65 64 63 63 63 62 61 59 54 50 48 47 45 42
49 48 52 60 65 65 65 65 64 62 61 61 61 64 65 66 65 64 63 63 63 62 60 57 54 52 48 47 46 44 43 42

GFSFLT2_sfc_30mbdewp_243.txt.gz
Dewpoint
70 71 71 71 71 70 70 70 70 70 70 70 70 69 68 68 68 67 66 64 63 62 61 60 60 59 58 56 56 56 57 56
70 69 70 71 70 70 69 69 69 69 70 69 69 68 68 68 67 67 65 63 62 61 60 60 59 58 57 57 57 57 56 57
69 70 69 69 70 69 69 69 69 69 69 68 68 68 68 68 67 66 64 63 62 61 60 59 59 59 59 58 59 56 56 63
68 69 70 70 69 69 69 69 68 68 68 68 67 67 67 67 66 65 64 62 62 61 60 60 60 59 59 58 58 54 55 64
66 68 69 69 68 68 68 68 68 68 67 66 65 65 66 65 65 64 63 63 62 61 61 61 60 59 59 59 57 56 55 64
64 66 68 66 68 68 67 66 66 66 67 66 64 64 63 64 64 63 62 62 60 61 61 61 60 60 60 60 59 57 57 63
63 64 65 65 66 66 65 65 66 66 66 65 65 65 63 64 63 63 63 62 61 62 62 63 62 62 62 60 59 58 56 63
63 64 65 64 64 64 64 64 66 66 66 66 65 65 63 63 64 62 62 63 62 63 63 63 63 63 61 61 61 57 55 57
62 65 65 64 66 63 64 65 65 65 66 67 66 65 66 63 62 61 60 61 62 61 63 64 63 63 62 63 62 61 59 56
63 65 66 66 65 65 64 65 64 65 66 67 66 65 67 64 61 62 61 61 62 62 62 63 63 63 63 63 62 63 61 61
63 65 66 66 64 66 64 65 66 65 67 67 67 66 67 64 62 62 61 61 61 60 60 60 62 63 62 63 64 63 63 62
63 64 66 66 65 66 65 64 66 67 67 68 68 67 67 66 63 63 61 60 60 60 60 63 62 62 62 62 63 64 63 63
62 63 66 66 66 64 65 63 66 66 66 67 67 67 67 66 64 63 62 59 59 61 62 61 63 63 61 60 60 62 62 63
62 62 64 65 65 64 64 64 65 66 65 66 66 66 66 66 65 62 62 59 59 62 63 62 62 62 59 59 55 56 59 62
62 61 63 65 65 65 64 63 64 63 64 64 66 66 66 65 65 63 62 60 59 62 63 62 60 63 62 58 56 53 55 59
61 62 63 64 65 64 63 62 62 62 62 64 64 67 66 65 65 63 62 62 61 63 63 62 61 60 62 62 60 57 53 49
61 62 63 64 65 64 63 62 62 62 62 62 62 66 65 65 64 63 62 63 64 64 63 62 62 61 60 60 58 58 56 50
62 63 63 64 65 64 63 62 62 61 61 61 61 64 64 65 64 63 62 65 64 65 64 64 63 62 61 58 56 52 51 50
62 63 63 64 64 64 63 63 61 60 61 61 61 62 63 63 63 63 63 65 65 64 64 63 62 61 60 54 48 47 44 43
60 62 63 64 64 64 63 63 61 61 61 61 61 62 63 63 63 65 64 64 64 63 62 62 61 55 53 47 44 44 42 41

GFSFLT2_sfc_30mbdewp_249.txt.gz
Dewpoint
69 69 70 70 70 70 69 69 69 70 70 69 69 68 68 68 68 68 67 66 65 63 62 59 57 56 57 58 58 58 62 62
68 69 69 70 70 69 69 69 69 69 69 69 67 67 67 68 67 66 65 64 62 61 59 58 57 56 58 59 59 56 55 60
67 69 69 69 69 69 68 68 68 69 69 68 67 67 67 67 66 65 63 62 61 60 59 58 57 57 58 59 58 56 55 63
67 69 68 68 69 69 68 68 68 68 68 67 67 66 66 66 65 64 62 61 60 59 59 59 59 57 57 59 56 56 58 63
66 67 68 68 68 68 68 68 68 68 68 67 66 66 66 66 65 64 62 62 61 60 59 59 58 58 57 59 59 58 60 64
65 66 66 66 67 67 66 67 67 67 67 66 66 65 65 64 64 63 61 61 59 59 58 58 58 58 59 60 60 58 57 64
65 65 65 66 67 66 66 66 66 66 66 66 65 65 64 64 63 62 60 60 58 58 58 58 58 58 59 61 61 58 60 63
65 65 65 66 66 65 65 66 66 66 66 65 64 64 64 63 63 62 60 60 58 57 57 58 59 61 61 62 62 59 59 63
66 66 66 66 66 65 66 66 66 66 65 65 64 63 63 63 62 62 62 60 59 59 59 60 61 62 63 63 62 60 55 60
65 66 67 67 67 66 66 66 65 65 65 64 64 64 63 63 62 62 62 61 61 59 59 61 62 62 63 63 62 62 59 56
63 64 65 66 66 66 65 65 65 65 64 65 64 64 65 63 63 62 62 61 61 60 60 61 61 62 63 63 63 63 63 62
62 63 64 64 64 64 64 64 64 64 64 64 65 63 64 64 63 63 62 61 60 61 60 62 62 62 63 63 63 64 63 63
62 62 62 63 63 62 62 62 63 64 64 64 65 65 64 65 64 62 63 61 61 60 60 61 61 63 61 61 60 61 62 63
62 62 62 62 62 61 61 62 62 63 64 64 65 65 65 64 64 63 62 61 61 60 60 61 61 62 59 58 57 57 58 59
62 63 63 62 62 62 63 63 64 64 64 65 65 66 66 65 64 64 63 61 60 60 60 59 59 61 60 58 55 54 55 52
62 62 63 63 63 63 63 62 62 63 64 65 65 66 66 66 65 64 63 62 61 60 61 60 60 59 61 60 58 55 52 51
61 62 63 64 64 63 64 63 62 63 64 65 65 66 66 66 65 65 63 62 61 61 60 60 60 60 60 59 57 56 53 52
62 62 63 64 64 63 64 63 63 63 64 64 65 65 66 66 66 65 64 63 62 61 61 61 61 60 60 60 58 56 54 48
60 62 62 64 64 64 63 63 63 63 63 64 64 64 65 65 65 65 64 64 63 61 61 61 61 61 60 60 59 57 55 51
58 61 62 64 65 64 64 63 63 63 63 63 63 64 64 65 65 65 65 64 63 62 61 61 62 61 61 59 57 55 54 51